Probability
0 0 0 0 0 0 0 0 0 0 0 0 0 0 0 0 0 0 0 0 0 0 0 0 0 0 0 0 0 0 0 0 0 0 0 0 0 0
0 0 0 0 0 0 0 0 0 0 0 0 0 0 0 0 0 0 0 0 0 0 0 0 0 0 0 0 0 0 0 0 0 0 0 0 0 0
0 0 0 0 0 0 0 0 0 0 0 0 0 0 0 0 0 0 0 0 0 0 0 0 0 0 0 0 0 0 0 0 0 0 0 0 0 0
0 0 0 0 0 0 0 0 0 0 0 0 0 0 0 0 0 0 0 0 0 0 0 0 0 0 0 0 0 0 0 0 0 0 0 0 0 0
0 0 0 0 0 0 0 0 0 0 0 0 0 0 0 0 0 0 0 0 0 0 0 0 0 0 0 0 0 0 0 0 0 0 0 0 0 0
0 0 0 0 0 0 0 0 0 0 0 0 0 0 0 0 0 0 0 0 0 0 0 0 0 0 0 0 0 0 0 0 0 0 0 0 0 0
0 0 0 0 0 0 0 0 0 0 0 0 0 0 0 0 0 0 0 0 0 0 0 0 0 0 0 0 0 0 0 0 0 0 0 0 0 0
0 0 0 0 0 0 0 0 0 0 0 0 0 0 0 0 0 0 0 0 0 0 0 0 0 0 0 0 0 0 0 0 0 0 0 0 0 0
0 0 0 0 0 0 0 0 0 0 0 0 0 0 0 0 0 0 0 0 0 0 0 0 0 0 0 0 0 0 0 0 0 0 0 0 0 0
0 0 0 0 0 0 0 0 0 0 0 0 0 0 0 0 0 0 0 0 0 0 0 0 0 0 0 0 0 0 0 0 0 0 0 0 0 0
0 0 0 0 0 0 0 0 0 0 0 0 0 0 0 0 0 0 0 0 0 0 0 0 0 0 0 0 0 0 0 0 0 0 0 0 0 0
0 0 0 0 0 0 0 0 0 0 0 0 0 0 0 0 0 0 0 0 0 0 0 0 0 0 0 0 0 0 0 0 0 0 0 0 0 0
0 0 0 0 0 0 0 0 0 0 0 0 0 0 0 0 0 0 0 0 0 0 0 0 0 0 0 0 0 0 0 0 0 0 0 0 0 0
0 0 0 0 0 0 0 0 0 0 0 0 0 0 0 0 0 0 0 0 0 0 0 0 0 0 0 0 0 0 0 0 0 0 0 0 0 0
0 0 0 0 0 0 0 0 0 0 0 0 0 0 0 0 0 0 0 0 0 0 0 0 0 0 0 0 0 0 0 0 0 0 0 0 0 0
0 0 0 0 0 0 0 0 0 0 0 0 0 0 0 0 0 0 0 0 0 0 0 0 0 0 0 0 0 0 0 0 0 0 0 0 0 0
0 0 0 0 0 0 0 0 0 0 0 0 0 0 0 0 0 0 0 0 0 0 0 0 0 0 0 0 0 0 0 0 0 0 0 0 0 0
0 0 0 0 0 0 0 0 0 0 0 0 0 0 0 0 0 0 0 0 0 0 0 0 0 0 0 0 0 0 0 0 0 0 0 0 0 0
0 0 0 0 0 0 0 0 0 0 0 0 0 0 0 0 0 0 0 0 0 0 0 0 0 0 0 0 0 0 0 0 0 0 0 0 0 0
0 0 0 0 0 0 0 0 0 0 0 0 0 0 0 0 0 0 0 0 0 0 0 0 0 0 0 0 0 0 0 0 0 0 0 0 0 0
0 0 0 0 0 0 0 0 0 0 0 0 0 0 0 0 0 0 0 0 0 0 0 0 0 0 0 0 0 0 0 0 0 0 0 0 0 0
0 0 0 0 0 0 0 0 0 0 0 0 0 0 0 0 0 0 0 0 0 0 0 0 0 0 0 0 0 0 0 0 0 0 0 0 0 0
0 0 0 0 0 0 0 0 0 0 0 0 0 0 0 0 0 0 0 0 0 0 0 0 0 0 0 0 0 0 0 0 0 0 0 0 0 0
Height
5656 5656 5657 5658 5658 5658 5659 5659 5659 5659 5659 5658 5657 5656 5654 5653 5653 5652 5651 5650 5649 5648 5646 5645 5643 5642 5641 5639 5638 5637 5635 5634 5632 5630 5628 5625 5623 5621
5642 5643 5644 5644 5645 5645 5645 5645 5645 5645 5645 5646 5644 5643 5641 5640 5639 5638 5637 5636 5635 5634 5632 5631 5629 5628 5627 5626 5625 5624 5622 5620 5618 5616 5614 5612 5610 5608
5628 5629 5630 5630 5631 5631 5631 5632 5632 5631 5632 5632 5631 5630 5628 5627 5626 5625 5624 5622 5621 5620 5618 5617 5616 5615 5614 5613 5611 5610 5608 5607 5605 5603 5601 5599 5596 5595
5614 5615 5616 5616 5617 5617 5617 5618 5618 5618 5618 5618 5617 5616 5615 5614 5613 5612 5610 5609 5608 5606 5605 5603 5602 5601 5600 5599 5598 5596 5595 5593 5591 5589 5588 5586 5584 5581
5600 5601 5602 5602 5603 5603 5604 5604 5604 5604 5604 5604 5604 5603 5602 5601 5599 5598 5597 5595 5594 5593 5591 5589 5588 5587 5586 5585 5584 5583 5581 5580 5578 5576 5574 5572 5570 5567
5586 5587 5588 5589 5590 5590 5590 5590 5590 5590 5590 5590 5590 5589 5588 5587 5586 5585 5584 5582 5581 5579 5577 5576 5575 5574 5573 5572 5571 5569 5567 5565 5563 5562 5560 5558 5556 5554
5572 5573 5574 5575 5576 5576 5576 5577 5577 5577 5577 5577 5576 5576 5575 5574 5573 5572 5570 5569 5567 5566 5564 5563 5562 5561 5560 5558 5557 5555 5553 5551 5550 5548 5546 5544 5542 5541
5559 5560 5561 5561 5562 5563 5563 5564 5564 5564 5563 5563 5563 5563 5562 5560 5559 5558 5557 5556 5556 5554 5552 5551 5549 5548 5547 5545 5544 5542 5540 5539 5537 5535 5533 5531 5529 5528
5546 5547 5548 5549 5549 5550 5550 5550 5551 5550 5550 5550 5550 5549 5549 5548 5546 5545 5544 5543 5542 5541 5539 5538 5537 5535 5534 5532 5531 5529 5528 5526 5524 5522 5520 5519 5517 5516
5534 5535 5536 5536 5537 5537 5538 5538 5538 5538 5538 5538 5538 5537 5535 5534 5533 5532 5531 5530 5529 5528 5526 5526 5525 5523 5522 5520 5518 5517 5515 5514 5512 5510 5509 5507 5506 5504
5524 5524 5524 5525 5526 5526 5526 5526 5527 5526 5525 5525 5525 5524 5523 5522 5520 5519 5519 5518 5517 5516 5514 5513 5512 5511 5510 5508 5507 5505 5504 5502 5501 5499 5498 5496 5494 5493
5514 5514 5515 5515 5515 5515 5515 5515 5515 5515 5515 5514 5514 5513 5512 5510 5509 5508 5507 5506 5505 5505 5503 5501 5500 5499 5499 5498 5496 5494 5493 5491 5490 5488 5487 5485 5483 5482
5505 5505 5505 5505 5505 5505 5505 5505 5505 5504 5504 5504 5503 5502 5501 5500 5499 5498 5497 5495 5494 5493 5492 5490 5489 5487 5487 5487 5486 5484 5483 5481 5480 5478 5477 5475 5473 5472
5496 5496 5496 5496 5496 5496 5495 5495 5495 5494 5494 5494 5493 5492 5491 5490 5489 5488 5487 5486 5485 5483 5482 5480 5479 5478 5477 5476 5476 5475 5473 5471 5470 5469 5467 5466 5464 5463
5489 5488 5488 5487 5487 5487 5487 5486 5486 5485 5485 5485 5484 5483 5482 5481 5481 5480 5479 5477 5476 5474 5473 5471 5470 5469 5468 5467 5467 5465 5464 5463 5461 5460 5459 5457 5456 5455
5482 5481 5480 5479 5479 5478 5478 5478 5477 5477 5476 5476 5475 5475 5474 5473 5472 5472 5471 5470 5468 5467 5465 5464 5462 5461 5460 5459 5458 5458 5456 5455 5454 5452 5451 5450 5449 5448
5475 5474 5473 5473 5472 5471 5470 5470 5469 5469 5469 5468 5467 5467 5466 5466 5465 5465 5464 5463 5462 5461 5459 5458 5457 5455 5454 5453 5452 5451 5450 5449 5447 5446 5445 5444 5443 5442
5469 5468 5467 5466 5465 5464 5464 5463 5463 5463 5462 5462 5461 5460 5460 5459 5459 5458 5458 5457 5456 5455 5454 5453 5452 5450 5449 5448 5447 5446 5445 5443 5442 5441 5439 5438 5438 5436
5463 5462 5461 5460 5460 5459 5458 5457 5457 5457 5456 5456 5455 5455 5454 5454 5453 5453 5452 5452 5451 5450 5449 5448 5447 5446 5445 5444 5443 5441 5440 5439 5438 5436 5435 5434 5433 5432
5458 5457 5456 5455 5454 5453 5452 5452 5451 5451 5451 5451 5450 5450 5450 5449 5449 5448 5448 5447 5447 5446 5445 5444 5443 5442 5441 5440 5439 5438 5436 5435 5434 5433 5431 5430 5429 5427
5453 5452 5451 5450 5449 5448 5448 5447 5447 5446 5446 5446 5446 5445 5445 5445 5445 5444 5444 5443 5442 5442 5441 5440 5439 5438 5437 5436 5436 5435 5433 5432 5430 5429 5427 5426 5425 5424
5448 5447 5446 5446 5445 5444 5443 5443 5442 5442 5442 5442 5442 5441 5441 5441 5440 5440 5440 5439 5438 5438 5437 5436 5435 5435 5434 5433 5432 5431 5430 5429 5427 5425 5424 5423 5421 5420
5443 5442 5442 5441 5441 5440 5439 5439 5438 5438 5438 5438 5438 5438 5437 5437 5436 5436 5436 5435 5435 5434 5434 5433 5433 5432 5431 5430 5429 5428 5427 5425 5424 5423 5421 5419 5418 5416
Wind_Speed
50 51 50 50 51 51 51 52 52 53 53 52 51 51 51 51 51 51 52 52 52 52 52 52 52 52 51 50 49 49 49 50 50 49 49 49 48 48
52 51 51 52 53 52 52 52 52 52 52 51 51 50 50 50 50 51 52 52 52 52 52 52 52 51 51 50 50 50 50 50 50 50 49 49 49 49
53 53 53 53 53 53 52 51 51 51 51 50 49 49 49 49 49 50 51 52 51 52 52 52 51 51 50 51 50 50 50 50 50 50 49 48 48 47
52 52 52 52 52 53 52 51 51 50 50 49 49 49 48 49 49 50 50 50 50 51 51 51 51 50 49 50 50 50 50 50 50 49 48 48 47 47
51 51 52 52 52 51 51 51 51 51 50 49 49 48 48 49 50 50 50 50 50 50 50 50 49 49 49 49 48 48 49 49 49 49 48 47 47 47
49 49 50 50 50 50 50 50 50 51 50 50 49 49 49 48 49 49 49 49 49 49 49 48 47 47 47 47 47 47 47 48 48 47 47 47 47 47
48 48 48 49 49 50 50 50 50 50 50 50 50 49 48 48 49 48 48 47 47 47 46 46 46 46 45 46 46 46 46 46 46 46 46 46 45 45
46 46 46 47 47 48 49 48 48 48 48 49 49 48 48 48 48 48 48 47 47 46 46 46 46 45 45 45 45 44 44 44 44 43 43 44 43 43
43 44 44 44 45 45 46 46 46 46 47 47 47 47 48 47 48 48 48 48 47 46 46 44 44 45 45 44 44 44 43 42 42 42 41 40 40 40
40 41 42 42 42 42 43 43 44 44 44 45 46 46 45 45 45 47 47 46 46 45 44 44 44 44 43 43 43 43 42 42 41 40 40 40 40 39
36 37 37 38 39 41 41 41 41 40 41 42 42 42 42 42 43 44 43 43 43 42 42 43 42 42 42 41 41 40 40 39 39 38 38 37 37 37
33 34 34 34 35 36 37 37 37 37 37 38 38 39 39 38 39 39 39 39 39 39 39 39 39 39 38 38 38 37 37 36 36 35 35 35 35 34
30 31 31 32 32 33 33 34 35 35 34 34 34 35 36 36 36 36 36 36 36 35 35 35 35 36 36 35 34 35 35 34 34 33 33 33 32 32
27 28 29 29 30 30 31 32 32 32 33 32 32 32 32 33 33 32 32 32 32 32 31 32 32 32 32 32 32 32 32 31 31 31 30 30 29 29
24 25 26 27 28 29 29 29 30 30 31 31 30 30 29 29 29 29 29 29 29 29 29 28 27 27 28 28 28 28 27 27 28 27 26 26 26 26
23 23 24 24 25 26 27 27 28 28 27 28 28 27 27 27 26 26 26 25 25 24 24 23 22 23 24 24 24 24 24 24 24 24 24 24 24 24
20 21 21 21 22 22 23 23 23 23 23 24 25 25 25 24 24 24 23 22 21 21 20 20 20 21 21 20 20 20 20 21 21 21 21 21 21 20
18 19 19 19 19 19 20 20 20 20 20 21 21 21 22 22 22 21 21 20 19 19 18 18 18 18 18 17 17 17 18 18 17 17 17 17 17 17
17 17 17 17 17 18 18 18 19 19 19 19 18 18 18 18 17 17 17 17 17 17 17 16 16 16 15 15 15 16 16 15 15 15 15 15 15 15
16 16 15 16 16 16 16 16 17 17 18 17 17 16 16 15 14 14 14 14 14 14 14 15 14 14 14 14 14 13 13 13 13 13 14 14 14 14
15 15 15 15 15 15 15 15 15 15 15 14 15 15 15 14 14 14 13 13 13 13 13 13 13 13 13 13 12 12 12 12 12 13 13 13 13 13
15 15 14 14 14 14 14 14 14 14 13 13 14 14 14 14 13 13 13 13 13 13 12 12 12 12 12 12 12 12 12 11 11 11 12 12 12 12
14 13 13 14 13 13 13 12 12 12 12 12 12 12 12 12 12 12 12 12 12 12 12 11 11 11 11 11 11 11 10 10 10 10 11 11 11 12
Wind_Direction
261 262 262 263 264 266 267 268 269 270 270 270 271 272 272 273 273 274 274 275 275 276 276 277 276 276 277 277 277 278 279 280 280 281 282 282 281 281
262 263 263 264 265 266 268 268 269 270 270 270 271 272 273 274 274 274 275 275 276 276 276 277 276 275 275 276 277 278 279 279 280 281 281 281 281 280
263 264 265 266 266 267 267 268 269 270 270 270 271 271 272 273 274 274 275 275 276 276 276 277 276 275 275 275 276 277 278 279 280 281 281 281 281 280
263 264 265 265 266 266 266 267 268 270 270 270 270 271 272 273 274 275 275 276 276 276 276 276 276 275 275 276 276 277 278 279 280 281 281 281 281 280
263 264 265 265 265 266 267 267 268 269 270 270 270 271 272 274 274 275 276 276 277 277 276 276 275 275 275 275 276 277 278 278 279 280 280 280 280 280
264 264 264 264 265 266 267 267 267 268 268 270 271 272 273 273 274 275 276 276 277 277 277 275 275 274 275 275 276 277 278 279 279 279 279 279 280 279
263 264 264 264 264 265 267 268 268 268 269 270 271 271 272 273 274 274 275 275 276 277 276 275 275 275 275 276 277 278 279 279 279 280 280 280 279 279
263 263 264 265 265 265 266 266 267 268 269 270 270 271 271 273 273 273 274 275 276 276 275 275 275 275 276 277 278 279 279 279 280 280 280 280 280 279
264 264 264 264 265 266 265 265 266 267 269 271 271 272 273 273 273 274 275 276 276 276 276 275 275 276 277 277 278 278 279 279 280 280 280 280 280 280
264 264 265 265 266 266 266 266 267 267 269 271 271 272 273 274 274 275 276 275 275 275 275 275 276 277 277 277 277 277 278 279 280 280 280 280 280 280
265 265 265 266 267 267 267 267 267 268 269 271 272 273 274 274 275 276 274 274 275 275 275 275 275 275 276 277 277 277 278 278 279 280 280 279 280 280
265 265 265 266 267 268 267 267 268 268 270 271 271 271 272 273 274 275 275 275 275 275 275 274 274 274 275 275 275 276 277 278 279 279 280 280 280 279
267 266 266 267 268 267 267 268 269 269 270 270 270 272 272 273 273 274 275 275 276 275 274 273 273 274 274 274 274 275 276 276 277 278 279 280 280 280
269 268 268 268 268 268 268 269 269 270 270 270 271 272 273 274 274 274 274 275 276 275 274 274 273 274 275 275 275 276 277 277 278 278 278 279 280 281
272 272 271 270 269 270 269 269 269 270 270 269 270 271 272 273 273 273 274 275 274 273 274 275 275 275 276 277 278 277 277 276 276 276 277 278 281 282
274 274 274 274 273 272 271 269 270 270 270 270 270 271 271 271 272 274 275 275 275 275 276 276 276 277 279 279 278 276 275 275 275 275 276 278 280 281
276 277 277 279 278 275 272 271 270 270 271 272 272 273 272 270 271 273 273 272 273 275 276 277 279 281 283 281 278 277 278 278 277 277 277 278 279 280
277 280 281 282 282 278 275 272 270 271 273 274 274 273 271 270 270 272 272 272 272 272 274 277 280 281 281 281 281 281 281 281 280 280 281 282 282 281
280 281 280 280 281 281 277 272 269 269 272 273 271 271 271 271 271 271 271 271 272 273 275 277 279 280 280 282 284 284 284 283 284 285 285 285 285 284
279 279 280 281 281 280 277 273 271 271 273 271 267 267 268 269 270 270 271 272 273 274 276 279 280 281 282 284 286 287 286 286 287 287 288 289 288 286
278 279 281 281 281 281 279 274 271 271 271 267 265 266 267 266 267 269 271 274 275 276 279 280 279 279 281 282 284 285 285 286 288 290 291 292 291 290
278 279 279 279 281 282 281 277 274 271 266 265 266 267 268 269 267 267 269 272 274 277 280 280 279 279 281 281 283 285 285 286 288 292 294 295 295 294
278 278 277 278 280 283 282 278 272 266 263 265 269 270 270 270 268 267 268 271 273 275 276 276 276 277 282 285 284 284 283 285 289 293 296 298 300 299